Theta_e
347 346 345 344 343 342 341 341 343 344 346 347 349 349 349 348 347 346 346 343 340 340 343 343 344 344 341 345 345 346 346 346 348 347 347 348 341 342 344 344 344 345 343
338 333 331 331 334 339 334 337 340 340 347 348 348 348 349 348 347 346 346 343 340 340 342 342 338 337 340 344 346 345 345 346 347 349 348 348 344 342 342 344 345 345 346
333 332 333 331 329 331 329 328 329 337 342 345 347 347 347 347 347 345 344 344 340 341 342 345 341 341 344 344 342 342 342 346 345 344 347 349 348 347 342 343 344 345 345
338 338 337 336 335 334 332 330 328 328 329 329 329 329 330 335 342 343 343 344 343 342 342 345 346 344 343 343 342 342 341 342 344 345 344 348 349 348 340 346 346 345 345
335 340 340 338 338 337 336 334 333 330 328 328 328 328 328 328 328 336 341 342 343 346 347 345 345 345 344 344 343 343 341 341 344 345 343 344 346 349 345 345 345 347 347
327 327 330 329 331 338 337 336 335 331 329 329 328 327 327 327 328 330 338 340 335 338 345 344 345 344 343 340 337 337 340 342 341 342 345 347 345 348 348 347 347 347 347
329 329 329 329 329 331 333 334 335 335 332 330 328 327 327 328 330 331 331 333 334 334 335 339 341 341 340 339 335 340 340 340 340 340 343 345 345 345 347 347 345 347 348
325 325 326 327 328 329 330 332 333 332 333 333 331 329 329 329 327 328 328 328 327 327 326 327 328 329 335 340 338 332 335 335 336 340 337 336 338 344 345 345 344 343 345
325 325 325 325 325 325 326 327 329 330 331 332 333 331 331 330 329 328 328 328 328 327 326 326 326 326 325 327 337 337 332 332 335 337 335 335 337 340 343 345 345 347 347
324 325 325 325 326 325 325 326 326 326 328 330 331 332 332 333 331 331 330 330 332 328 327 326 326 325 325 326 326 331 337 331 331 336 333 333 337 339 342 343 344 347 347
318 318 318 318 319 322 325 326 327 326 327 328 330 331 331 332 332 331 332 332 333 334 333 333 333 328 325 326 327 327 327 336 336 331 336 335 333 335 340 341 343 345 346
317 318 319 319 319 318 319 323 325 326 327 327 326 329 330 330 330 330 330 332 333 333 334 333 333 331 327 326 328 329 327 328 338 338 340 339 337 335 335 341 343 343 345
317 316 316 317 317 315 315 317 320 324 325 325 329 329 329 329 330 328 326 326 327 328 329 334 333 331 329 327 327 330 330 330 334 336 338 339 333 336 335 337 342 342 344
316 318 319 318 317 316 314 314 316 319 322 324 325 327 329 330 330 330 330 330 328 327 328 328 330 330 328 328 328 328 328 334 335 337 339 338 331 333 338 337 337 340 343
317 319 319 319 318 317 316 315 315 317 319 323 325 326 327 327 329 330 329 329 330 329 329 330 330 330 329 329 329 330 332 334 334 333 333 332 333 335 335 338 337 337 342
319 321 321 321 320 318 318 317 319 318 320 324 325 326 326 326 326 326 326 327 328 330 329 329 331 331 330 333 333 333 332 331 330 330 332 333 332 336 336 338 337 333 338
318 319 320 320 320 319 321 322 323 325 324 324 325 326 326 326 326 326 326 326 327 329 330 329 331 332 331 330 332 331 332 333 331 330 330 334 337 339 340 340 338 335 336
317 317 316 317 318 319 320 321 322 323 324 324 325 326 326 325 324 325 327 327 327 329 329 328 330 331 330 330 329 330 332 331 329 330 330 330 337 340 338 343 340 337 332
315 316 316 316 315 315 316 318 320 320 321 323 324 325 326 326 327 326 325 326 327 328 328 328 328 329 329 330 331 331 332 332 331 329 330 333 332 336 336 337 340 339 330
313 314 315 315 314 314 315 315 315 316 318 319 320 320 323 325 326 327 327 327 327 326 325 327 327 327 329 330 331 332 331 331 331 332 333 333 334 336 335 336 338 340 335
308 311 312 313 315 314 314 314 314 313 312 313 315 317 319 321 323 324 326 326 326 326 326 326 327 327 328 329 330 330 330 330 330 331 332 334 334 334 332 335 336 333 335
305 307 308 308 310 313 313 313 313 313 313 313 313 313 315 317 318 321 323 324 325 325 325 325 325 326 327 328 330 330 330 330 330 331 332 333 333 334 333 335 335 332 332
302 305 307 307 307 307 307 309 310 311 312 311 311 311 314 314 314 316 317 318 322 324 325 326 326 327 326 329 329 330 330 331 331 331 331 331 333 334 334 333 334 335 335
300 301 304 304 303 305 305 305 305 305 306 307 308 310 310 311 313 315 317 317 317 319 320 321 322 323 325 327 327 329 330 331 331 329 331 331 332 333 331 332 334 335 336
302 300 300 302 303 303 303 304 303 302 302 302 303 304 304 308 309 311 314 316 318 318 318 318 319 320 321 322 322 323 325 328 329 329 329 330 330 331 332 332 334 333 333
305 304 303 300 299 300 302 302 302 302 302 302 301 302 303 304 304 305 308 311 313 315 316 318 318 318 319 319 319 319 320 321 323 327 329 329 329 329 331 333 334 334 334
Wind_Speed
7 8 10 10 10 10 11 12 12 13 13 12 15 16 17 19 20 23 25 20 16 16 16 20 23 22 22 23 23 22 21 22 25 23 21 20 23 23 20 18 19 18 18
9 9 10 12 12 11 11 12 11 11 11 13 16 18 17 15 18 22 25 24 20 18 17 19 16 16 13 15 21 24 26 23 24 26 25 23 27 24 25 22 21 21 21
8 12 11 11 11 8 10 16 16 11 10 12 15 16 17 17 19 22 24 27 28 23 18 24 27 26 24 23 23 22 25 27 26 29 26 23 23 23 26 26 25 24 24
14 15 17 16 14 13 11 14 16 14 13 14 14 14 15 17 20 21 20 24 29 30 28 28 26 28 26 20 23 23 23 24 26 28 30 26 24 21 26 22 23 26 26
16 21 24 22 19 18 19 19 19 19 18 19 18 17 18 19 19 19 19 18 19 19 21 22 26 25 23 22 23 21 22 23 25 28 30 30 29 23 25 22 26 21 23
20 20 20 22 26 24 24 23 23 22 21 20 18 18 19 20 19 16 17 17 16 20 20 21 22 22 22 21 21 21 20 21 22 23 26 29 32 28 25 23 22 21 23
27 27 27 27 27 30 33 34 33 28 26 24 22 21 21 20 19 16 14 16 15 15 16 18 20 21 21 22 19 18 18 18 21 21 24 26 29 29 28 28 28 26 26
28 30 31 30 30 30 32 33 36 37 34 30 27 24 24 22 17 19 20 21 22 22 21 19 19 19 18 20 20 21 22 22 20 17 20 23 27 28 31 30 32 33 30
23 23 25 25 29 32 34 35 35 34 35 34 32 31 30 29 24 20 19 20 22 23 23 24 25 26 24 20 23 25 23 23 19 20 20 24 25 27 30 28 28 25 29
22 23 25 26 27 29 29 30 32 36 34 33 31 31 34 34 33 30 26 26 25 27 26 27 28 27 28 27 27 27 28 26 23 24 24 19 20 24 23 29 31 30 28
23 26 28 30 31 31 29 29 30 30 29 33 32 31 31 33 38 38 35 34 31 27 26 25 23 29 28 28 29 32 33 28 27 25 28 28 27 22 23 30 34 36 33
29 29 29 29 29 30 29 31 28 28 29 29 30 35 37 37 38 39 38 37 37 37 33 31 29 32 35 31 30 31 31 30 27 27 24 28 32 26 24 26 32 36 38
27 28 30 30 28 27 27 27 32 28 26 28 21 21 23 25 27 34 39 39 39 39 38 34 35 36 36 35 33 32 29 30 32 30 29 27 31 25 20 19 22 33 37
27 29 29 29 29 26 25 25 22 23 20 22 21 21 20 20 21 22 21 23 26 29 33 35 35 35 34 32 32 31 30 30 32 30 29 29 34 30 30 29 28 30 35
25 29 29 29 27 27 25 22 21 20 23 21 20 22 23 26 26 25 23 20 17 18 21 21 22 26 29 27 28 28 25 24 28 30 33 34 35 33 31 28 24 25 35
24 25 26 26 26 26 27 26 19 16 13 15 18 20 22 26 26 28 31 31 24 22 20 21 22 24 25 21 19 18 21 20 20 21 27 33 36 34 32 29 26 18 26
23 23 25 25 25 25 24 24 23 12 8 14 19 16 16 19 21 22 23 25 27 29 26 22 21 22 22 26 22 22 24 21 23 24 24 25 30 30 29 29 31 26 22
28 27 27 24 23 23 23 21 20 20 21 20 16 14 15 18 18 18 18 19 24 26 27 23 22 22 22 23 27 28 26 26 27 27 27 24 24 26 26 30 31 33 28
25 27 28 28 27 27 25 22 21 20 18 16 15 10 12 14 14 16 14 17 17 20 22 23 22 21 21 21 21 21 21 22 25 28 28 22 23 26 27 26 29 36 29
24 24 26 29 30 31 33 34 29 22 20 19 17 16 16 15 12 9 12 14 17 17 17 20 19 22 20 21 21 21 21 21 23 24 24 25 24 24 26 26 25 30 36
24 24 24 25 26 29 30 31 35 34 30 24 20 18 16 13 9 6 7 9 10 10 12 18 16 17 17 19 21 22 22 23 22 21 21 23 24 26 27 26 25 27 25
23 22 23 25 25 25 26 27 28 30 33 36 32 26 18 15 13 12 12 10 11 12 17 20 22 19 16 17 18 19 21 22 22 21 20 20 22 24 25 26 28 31 29
23 22 21 21 23 24 26 25 26 28 28 29 30 35 37 32 27 22 19 16 13 12 13 16 20 20 22 21 19 17 18 20 21 21 21 21 21 24 25 27 27 27 27
25 23 21 21 23 21 24 23 24 26 28 29 30 30 29 31 34 33 29 27 17 10 9 8 8 9 12 15 19 21 22 24 26 28 24 23 24 25 29 27 24 26 26
27 26 25 23 22 23 22 22 23 25 26 28 29 29 29 28 28 30 30 32 27 26 24 23 24 21 17 15 13 12 18 26 30 33 34 33 30 29 29 26 27 28 26
26 25 26 26 26 25 24 23 23 23 24 25 26 27 27 28 26 27 27 28 28 26 24 22 22 22 21 20 20 22 25 20 22 31 36 38 39 36 33 28 29 29 27
Wind_Direction
354 333 329 329 322 316 318 318 312 299 298 285 284 284 274 265 260 252 253 259 259 257 257 250 243 249 259 249 248 245 242 243 248 253 253 253 251 247 245 246 246 244 246
358 354 352 347 338 341 354 351 331 320 302 287 278 278 274 271 264 256 252 248 243 262 259 246 243 236 263 263 252 250 255 250 246 251 251 256 255 252 245 244 244 241 241
329 315 320 323 328 327 353 343 337 327 305 297 289 285 282 277 274 270 260 247 242 251 259 251 248 255 260 261 267 266 260 263 258 255 253 255 254 251 247 243 244 242 244
303 299 303 311 310 303 292 317 324 314 317 320 321 326 322 305 287 278 275 255 243 249 262 252 252 261 261 262 273 275 276 268 264 262 260 250 252 249 248 243 246 244 245
305 295 299 300 284 283 288 292 296 291 293 296 298 303 305 306 307 290 272 270 256 252 254 253 256 255 252 253 267 270 271 266 266 265 264 258 244 242 242 244 244 243 249
304 300 291 289 288 281 277 275 276 277 286 284 292 296 292 286 284 282 280 271 268 258 257 255 256 258 259 263 272 270 265 264 266 272 276 257 250 242 244 242 243 241 245
301 298 295 290 283 275 278 281 283 274 263 262 273 289 292 281 273 265 265 268 271 267 268 261 258 262 266 264 271 264 261 265 268 271 274 270 265 250 246 247 243 240 239
300 295 293 291 289 284 279 276 272 274 277 269 261 267 272 270 274 272 272 271 269 269 270 270 269 268 270 262 265 265 264 270 267 264 276 279 273 269 260 257 253 254 249
312 306 304 301 294 289 284 282 278 276 271 268 263 259 261 263 263 267 267 266 270 275 277 276 273 272 271 272 268 268 273 267 267 264 285 286 274 260 258 259 245 240 240
322 313 307 305 303 298 297 295 286 277 276 272 268 258 259 259 258 258 258 265 266 273 277 277 275 273 275 270 266 269 267 265 268 263 276 290 292 264 254 249 244 234 235
322 318 312 305 299 289 291 293 293 289 280 272 266 265 263 260 259 259 257 256 260 263 267 271 273 276 273 273 265 261 263 271 267 264 262 273 278 287 269 253 243 238 232
328 328 328 323 316 303 286 274 281 286 287 280 274 265 264 268 266 263 264 261 258 259 261 264 267 274 281 277 268 262 260 263 262 256 257 261 270 279 280 278 242 241 240
338 338 337 332 328 322 316 301 274 273 285 285 278 277 275 273 272 271 269 267 264 261 259 259 263 271 275 273 264 260 261 255 252 252 253 258 266 276 270 278 267 246 241
341 345 344 341 337 332 324 316 308 272 275 282 289 281 278 280 277 274 275 276 270 267 258 256 260 265 266 264 264 261 254 252 251 250 253 260 268 265 264 265 276 260 245
348 351 348 345 344 339 332 324 313 295 262 272 283 285 284 281 278 278 278 271 272 265 258 253 251 255 259 258 256 256 256 251 253 258 258 260 263 263 257 260 259 269 253
349 351 353 352 355 353 347 345 343 323 264 269 279 275 283 283 286 278 272 269 262 263 256 247 245 247 255 242 238 246 250 255 261 268 262 257 256 258 254 250 246 269 265
356 352 351 353 353 354 359 357 354 359 309 290 288 288 290 288 290 286 274 264 257 257 257 249 251 251 250 244 243 249 254 256 265 273 275 273 257 253 247 244 239 249 255
15 14 7 358 355 355 356 357 354 351 348 350 342 315 302 286 286 290 278 264 255 253 248 249 252 252 255 255 255 253 255 259 260 265 272 277 263 249 247 242 238 241 248
7 17 19 21 24 19 7 355 351 347 343 334 327 330 302 297 291 279 277 272 268 269 266 260 259 261 259 257 253 253 255 257 261 260 259 264 261 254 253 249 247 243 240
16 19 22 25 29 34 32 24 12 358 351 350 345 335 333 335 340 307 304 288 275 270 284 275 263 267 255 251 252 255 259 261 259 260 259 251 250 251 252 248 246 248 237
16 18 18 19 24 24 26 33 33 28 20 12 360 347 333 335 345 333 297 285 284 279 282 284 277 263 260 260 260 259 260 261 258 259 261 255 247 241 250 251 249 251 252
17 15 14 17 20 22 26 26 29 33 34 29 27 24 14 9 4 347 333 316 302 286 270 271 274 268 265 268 266 263 261 259 262 258 261 255 249 247 243 242 249 252 248
17 16 14 14 15 17 19 21 23 22 24 28 25 25 30 30 35 30 18 349 319 308 294 276 272 273 265 253 249 255 264 266 264 261 258 256 257 250 246 247 247 246 248
19 17 13 13 16 14 14 13 14 14 16 17 18 18 23 23 20 27 27 29 14 16 358 14 359 313 292 283 273 264 257 255 255 253 252 262 255 254 252 253 251 248 244
19 18 17 13 11 9 11 11 13 14 15 18 19 17 13 13 17 17 17 25 28 27 29 36 46 43 33 26 12 333 289 269 263 260 256 254 251 248 251 252 247 252 246
17 17 17 16 15 13 9 7 7 7 8 12 13 13 14 15 11 9 9 10 13 15 17 18 17 18 16 14 11 7 4 337 295 269 262 256 253 248 249 247 241 244 246